Regional Weather Roundup
Issued by NWS Charleston, SC

Current Version | Previous Version | Graphics & Text | Print | Product List | Glossary On
Versions: 1 2 3 4 5 6 7 8 9 10 11 12 13 14 15 16 17 18 19 20 21 22 23 24 25 26 27 28 29 30 31 32 33 34 35 36 37 38 39 40 41 42 43 44 45 46 47 48 49 50
000
ASUS42 KCHS 280012
RWRCHS

REGIONAL WEATHER ROUNDUP
NATIONAL WEATHER SERVICE CHARLESTON SC
800 PM EDT THU AUG 27 2015

NOTE: "FAIR" INDICATES FEW OR NO CLOUDS BELOW 12,000 FEET WITH NO
SIGNIFICANT WEATHER AND/OR OBSTRUCTIONS TO VISIBILITY.

NOT ALL STATIONS ARE QUALITY CONTROLLED BY THE NATIONAL
WEATHER SERVICE. USE DATA WITH CAUTION...ESPECIALLY
DEWPOINT OBSERVATIONS.

SCZ027-030-031-034>040-042>050-280100-
...SOUTHEAST SOUTH CAROLINA...

CITY           SKY/WX    TMP DP  RH WIND       PRES   REMARKS
N CHARLESTON   MOCLDY    75  71  87 NE6       30.02R
6HR MIN TEMP:  75; 6HR MAX TEMP:  84; 6HR PCP:  0.07;

WATERFRONT PRK   N/A     78  75  90 N10       29.97R
MOUNT PLEASANT RAIN      73  73 100 N5        30.00S
JOHNS ISLAND   MOCLDY    77  73  88 NE8G14    30.00R
PINOPOLIS        N/A     81  73  78 SE5       29.94R
MONCKS CORNER  DRIZZLE   75  72  88 CALM      30.02R
SUMMERVILLE    FAIR      79  73  83 E6        30.03R
BEAUFORT MCAS  MOCLDY    80  73  79 E6        29.99R
6HR MIN TEMP:  71; 6HR MAX TEMP:  83;

BEAUFORT ARPT  MOCLDY    79  75  89 E5        29.98S FOG
HILTON HEAD IS MOCLDY    75  73  94 NE5       30.00R
WALTERBORO     NOT AVBL
ALLENDALE      FAIR      81  72  74 E3        29.99R

...SOUTHERN MIDLANDS AND PEE DEE...

CITY           SKY/WX    TMP DP  RH WIND       PRES   REMARKS
GEORGETOWN     NOT AVBL
KINGSTREE      NOT AVBL
ORANGEBURG     PTCLDY    80  69  69 E6        30.02R
6HR MIN TEMP:  80; 6HR MAX TEMP:  88;

BARNWELL       FAIR      82  72  69 E6        30.01R
AIKEN          FAIR      81  61  50 E5        30.04R
MANNING        FAIR      77  68  73 CALM      30.02R
COLUMBIA       PTCLDY    84  64  50 E12       30.00R
6HR MIN TEMP:  84; 6HR MAX TEMP:  90;

SUMTER         PTCLDY    79  68  67 E8        30.01R
6HR MIN TEMP:  79; 6HR MAX TEMP:  87;

FLORENCE       PTCLDY    77  69  76 NE8       30.04R
6HR MIN TEMP:  77; 6HR MAX TEMP:  85;

MYRTLE BEACH   MOCLDY    77  70  78 NE8         N/A
N MYRTLE BEACH CLOUDY    75  73  93 NE7       30.02R
6HR MIN TEMP:  74; 6HR MAX TEMP:  83; 6HR PCP:  1.50;


$$

GAZ063-065-086>088-099>101-113>116-118-119-134>141-150-280100-
...SOUTHEAST GEORGIA...

CITY           SKY/WX    TMP DP  RH WIND       PRES   REMARKS
SAVANNAH ARPT  MOCLDY    78  73  84 E7        29.98R
6HR MIN TEMP:  74; 6HR MAX TEMP:  85; 6HR PCP: TRACE;

HUNTER AAF     FAIR      78  77  98 NE3       29.95R
6HR MIN TEMP:  72; 6HR MAX TEMP:  86; 6HR PCP:  0.46;

FORT STEWART   FAIR      74  71  89 CALM      29.95S
6HR MIN TEMP:  71; 6HR MAX TEMP:  84; 6HR PCP:  0.90;

STATESBORO     FAIR      80  76  87 E5        29.98S
SYLVANIA       FAIR      80  75  85 E6        30.00R
CLAXTON        NOT AVBL

...CSRA...CENTRAL AND FAR SOUTHEAST GEORGIA...

CITY           SKY/WX    TMP DP  RH WIND       PRES   REMARKS
THOMSON        FAIR      81  72  73 N3        30.05R
AUGUSTA-BUSH   FAIR      80  71  74 E3        29.98R
6HR MIN TEMP:  80; 6HR MAX TEMP:  88;

AUGUSTA-DANIEL FAIR      84  64  50 NE6       30.00R
SWAINSBORO     FAIR      82  73  74 E3        29.99R
VIDALIA        FAIR      79  70  73 E6        29.99R
EASTMAN        FAIR      83  71  66 E8        29.99R
HAZLEHURST     FAIR      82  70  67 NE5       29.96R
ALMA           FAIR      81  69  67 E6        29.96R
6HR MIN TEMP:  81; 6HR MAX TEMP:  94;

WAYCROSS       TSTM      75  71  87 S9        29.95F
JESUP          MOCLDY    79  72  78 NE3       29.97S
BAXLEY         FAIR      81  72  74 E7        29.96R
BRUNSWICK      MOCLDY    81  75  83 CALM      29.95R
SAINT SIMONS   FAIR      82  73  74 SE6       29.94R
6HR MIN TEMP:  82; 6HR MAX TEMP:  86;


$$

SCZ027-028-034-036>038-045-046-048>050-GAZ119-141-280100-
...LAKE AND SUPPLEMENTAL COASTAL OBSERVATIONS...

STATION/POSITION TIME  TEMP    WIND        PRES    WAVE   SWELL
                       AIR SEA DIR/SP/G            HT/PER HT/PER/DIR
                 (UTC) (F)     (DEG/KT/KT) (MB)    (FT/S) (FT/S/D)
UPR LAKE MARION  NOT AVBL
WINYAH BAY       NOT AVBL
LAKE MURRAY      2300   83      30/  3/  5 1014.9S
ACE BASIN NERRS  NOT AVBL
FORT PULASKI     2300   81 86  340/  2/  3 1015.4R
SAPELO ISLAND    2300   84     140/  4     1014.0S

$$

ANZ835-935-AMZ111-154-330-350-352-354-370-450-454-472-280100-
...C-MAN AND BUOY OBSERVATIONS...

STATION/POSITION TIME  TEMP    WIND        PRES    WAVE   SWELL
                       AIR SEA DIR/SP/G            HT/PER HT/PER/DIR
                 (UTC) (F)     (DEG/KT/KT) (MB)    (FT/S) (FT/S/D)
BUOY 41004       2350   81 85  350/  4/  6 1015.2R   2/10   2/10
BUOY 41008       2350   82 85  130/  8/ 10 1014.3R   3/10   3/ 90/10
FOLLY BEACH CMAN 0000   78      30/ 11/ 13 1016.1R
CAPERS NEARSHORE 2308   78      50/ 16/ 21 1015.9R
FRIPP NEARSHORE  2300   82     120/  8/ 10 1014.5F


STATION/POSITION TIME  TEMP    WIND        PRES    WAVE   SWELL
                       AIR SEA DIR/SP/G            HT/PER HT/PER/DIR
                 (UTC) (F)     (DEG/KT/KT) (MB)    (FT/S) (FT/S/D)
5E ST. MARYS GA  2321      87                N/A     2/10   2/110/11
FRYING PAN BUOY  2350   81 81   90/ 12/ 14 1015.9R
BUOY 41025       2350   77 82   60/  8/ 10 1016.9R   5/10   5/100/10
CAPE LOOKOUT NC  2300   77      40/ 17/ 19 1016.0R
BUOY 41002       2350   81 84  170/  8/  8 1016.0R   3/ 8   3/140/ 8
BUOY 41010       2320   79 84  120/ 14/ 16 1014.9F
ST AUGUSTINE FL  0000   82 87  150/  7/  8 1014.3F


$$


USA.gov is the U.S. government's official web portal to all federal, state and local government web resources and services.